BEIDOU-3 M16

Last updated on May 15, 2019, 3:07 a.m. UTC

1 43648U 18078B   19134.85043127 -.00000103  00000-0  10000-3 0  9996
2 43648  55.0922  29.3697 0005764 344.5674 340.9365  1.86232555  3933
UTC
Height (km)
Latitude
Longitude
Inclination
Orbital Period
UTC large
Height (km)
Speed (km/s)
/
Latitude / Longitude
Inclination (degrees)
Orbital Period (minutes)
Azimuth
Elevation
Range (km)
Doppler Factor
iOS Compass Heading
iOS Angle

Next 30 passes for location: Hong Kong

Rise time Rise Azimuth (degrees) Set time Set Azimuth (degrees) Duration Max altitude (degrees)

No matching passes for this satellites